User: anonymous   Login
Location: A O Calhoun Middle School
(33.2198°N, 97.1397°W)
Time: 03:12:16
(UTC+00:00)
Language:

Nadezhda 4 Rocket - Orbit

View from above orbital plane
View from above orbital plane
View from above satellite
View from above satellite

Ground track
Ground track

The orbit data is extracted from the following two-line orbital elements,

1 23180U 94041B   22145.76356956  .00000055  00000-0  39088-4 0  9995
2 23180  82.9488  28.9013 0028253 205.1126 218.5141 13.78045112400889
Epoch (UTC): 25 May 2022 18:19:32
Eccentricity: 0.0028253
inclination: 82.9488°
perigee height: 950 km
apogee height: 991 km
right ascension of ascending node: 28.9013°
argument of perigee: 205.1126°
revolutions per day: 13.78045112
mean anomaly at epoch: 218.5141°
orbit number at epoch: 40088

The dashed part of the orbit path shows where the satellite is in the earth's shadow,  

DLR